Meteo Giornale » Osservazioni meteo Germania » Hof
ore: 15:50 - Osservazioni Meteo Hof
Lat. 50° 19' N Lon. 11° 53' E Alt. 567 metri s.l.m.
19 °C
Poco Nuvoloso
Temp. 24 Ore
12 °C
19 °C
Sud-Ovest
11.1 Km/h
Dew point 11 °C
Umidità 59 %
Visibilità 10 Km
Il sole sorge alle ore 06:27
Il sole tramonta alle ore 19:57
| Data e Ora | Cielo e Fenomeni | T °C | DP °C | Um. % | Pres. hPa | Vis. km | Vento km/h | |
|---|---|---|---|---|---|---|---|---|
| Oggi h: 15:50 | Poco Nuvoloso | 19 | 11 | 59 | 1021 | 10 | SO 11.1 | |
| Oggi h: 15:20 | Poco Nuvoloso | 19 | 12 | 63 | 1021 | 10 | O/SO 16.7 | |
| Oggi h: 14:50 | Nuvoloso | 19 | 11 | 59 | 1022 | 10 | O 14.8 | |
| Oggi h: 14:20 | Nuvoloso | 19 | 12 | 63 | 1022 | 10 | O/SO 14.8 | |
| Oggi h: 13:50 | Nuvoloso | 18 | 12 | 67 | 1022 | 10 | O/SO 14.8 | |
| Oggi h: 13:20 | Nuvoloso | 17 | 11 | 67 | 1022 | 10 | O/SO 18.5 | |
| Oggi h: 12:50 | Nuvoloso | 17 | 12 | 72 | 1022 | 10 | O 20.3 | |
| Oggi h: 12:20 | Nuvoloso | 17 | 12 | 72 | 1022 | 10 | O/SO 16.7 | |
| Oggi h: 11:50 | Nuvoloso | 16 | 12 | 77 | 1022 | 10 | O/SO 16.7 | |
| Oggi h: 11:20 | Nuvoloso | 16 | 12 | 77 | 1022 | 10 | SO 18.5 | |
| Oggi h: 10:50 | Nuvoloso | 16 | 12 | 77 | 1022 | 10 | O/SO 20.3 | |
| Oggi h: 10:20 | Nuvoloso | 16 | 12 | 77 | 1021 | 10 | O/SO 20.3 | |
| Oggi h: 09:50 | Nuvoloso | 14 | 12 | 87 | 1021 | 10 | O/SO 20.3 | |
| Oggi h: 09:20 | Nuvoloso | 14 | 12 | 87 | 1021 | 10 | O/SO 18.5 | |
| Oggi h: 08:50 | Nuvoloso | 14 | 12 | 87 | 1021 | 10 | SO 16.7 | |
| Oggi h: 08:20 | Nuvoloso | 14 | 12 | 87 | 1021 | 10 | O/SO 14.8 | |
| Oggi h: 07:50 | Molto Nuvoloso | 13 | 11 | 87 | 1021 | 10 | O/SO 13 | |
| Oggi h: 07:20 | Molto Nuvoloso | 13 | 11 | 87 | 1021 | 10 | SO 11.1 | |
| Oggi h: 06:50 | Nuvoloso | 12 | 11 | 93 | 1020 | 10 | SO 13 | |
| Oggi h: 06:20 | Poco Nuvoloso | 12 | 11 | 93 | 1020 | 10 | SO 11.1 | |
| Oggi h: 05:50 | Sereno | 12 | 11 | 93 | 1020 | 10 | SO 11.1 | |
| Oggi h: 05:20 | Nuvoloso | 12 | 11 | 93 | 1020 | 10 | SO 13 | |
| Oggi h: 04:50 | Molto Nuvoloso | 13 | 11 | 87 | 1020 | 10 | O/SO 11.1 | |
| Oggi h: 04:20 | Molto Nuvoloso | 13 | 12 | 93 | 1020 | 10 | O/SO 9.3 | |
| Oggi h: 03:50 | Molto Nuvoloso | 13 | 12 | 93 | 1019 | 10 | O/SO 11.1 | |
| Oggi h: 03:20 | Molto Nuvoloso | 13 | 12 | 93 | 1019 | 10 | O/SO 9.3 | |
| Oggi h: 02:50 | Molto Nuvoloso | 13 | 12 | 93 | 1019 | 10 | O/SO 13 | |
| Oggi h: 02:20 | Sereno | 13 | 12 | 93 | 1019 | 10 | O/SO 11.1 | |
| Oggi h: 01:50 | Sereno | 13 | 12 | 93 | 1019 | 10 | SO 13 | |
| Oggi h: 01:20 | Sereno | 13 | 12 | 93 | 1019 | 10 | SO 13 | |
| Oggi h: 00:50 | Sereno | 13 | 12 | 93 | 1019 | 10 | O/SO 13 | |
| Oggi h: 00:20 | Molto Nuvoloso | 14 | 12 | 87 | 1019 | 10 | O/SO 16.7 | |
| Ieri h: 23:50 | Coperto | 14 | 13 | 93 | 1019 | 10 | O/SO 16.7 | |
| Ieri h: 23:20 | Poco Nuvoloso | 13 | 12 | 93 | 1018 | 10 | O/SO 14.8 | |
| Ieri h: 22:50 | Nuvoloso | 14 | 12 | 87 | 1018 | 10 | O/SO 16.7 | |
| Ieri h: 22:20 | Nuvoloso | 14 | 12 | 87 | 1018 | 10 | O/SO 16.7 | |
| Ieri h: 21:50 | Molto Nuvoloso | 15 | 12 | 82 | 1018 | 10 | O/SO 20.3 | |
| Ieri h: 21:20 | Nuvoloso | 16 | 12 | 77 | 1017 | 10 | O/SO 16.7 | |
| Ieri h: 20:50 | Nuvoloso | 16 | 11 | 72 | 1017 | 10 | O 13 | |
| Ieri h: 20:20 | Nuvoloso | 15 | 12 | 82 | 1016 | 10 | O/SO 9.3 | |
| Ieri h: 19:50 | Nuvoloso | 16 | 12 | 77 | 1016 | 10 | O/SO 13 | |
| Ieri h: 19:20 | Pioggia | 17 | 12 | 72 | 1016 | 10 | O/SO 14.8 | |
| Ieri h: 18:50 | Sereno | 18 | 12 | 67 | 1016 | 10 | O/SO 14.8 | |
| Ieri h: 18:20 | Sereno | 19 | 13 | 68 | 1016 | 10 | O/SO 18.5 | |
| Ieri h: 17:50 | Poco Nuvoloso | 19 | 13 | 68 | 1016 | 10 | O/SO 16.7 | |
| Ieri h: 17:20 | Nuvoloso | 19 | 12 | 63 | 1016 | 10 | O/SO 18.5 | |
| Ieri h: 16:50 | Nuvoloso | 18 | 13 | 72 | 1016 | 10 | O 22.2 | |



